Location: El Chorro
(10.0985°N, 67.3542°W)
Time: 19:12:41
(UTC+00:00)

BlueWalker 3 - Pass Details

Date: 15 November 2025
Orbit: 455 x 462 km, 53.2° (Epoch: 06 December)

Event Time Altitude Azimuth Distance (km) Brightness Sun altitude
Rises 22:51:31 0° 240° (WSW) 2,469 7.3 -12.0°
Reaches altitude 10° 22:54:03 10° 258° (WSW) 1,597 6.0 -12.6°
Maximum altitude 22:56:45 20° 307° (NW) 1,119 4.1 -13.2°
Drops below altitude 10° 22:59:28 10° 356° (N) 1,599 4.4 -13.9°
Enters shadow 23:00:58 - 8° (N) 2,098 4.8 -14.2°
